Regional Weather Roundup
Issued by NWS Midland/Odessa, TX

Skip options and go directly to product.
Home | Oldest Version | Previous Version | Current Version | All | Text Only | Save Text | Print | Product List | Glossary On

Skip product version selection by date and time.   
993
ASUS44 KMAF 250810
RWRMAF
MIDLAND AREA WEATHER ROUNDUP
NATIONAL WEATHER SERVICE MIDLAND TX
300 AM CDT SAT JUN 25 2016

...IN SOUTHWEST TEXAS AND SOUTHEAST NEW MEXICO...

CITY           SKY/WX    TMP DP  RH WIND       PRES   REMARKS
ALPINE         CLEAR     73  55  53 S10       30.13F
ANDREWS        FAIR      74  59  60 S5        30.03F
ARTESIA        PTCLDY    75  55  50 SE9       30.03S
BIG SPRING     PTCLDY    75  61  62 SE9       30.04S
CARLSBAD       CLOUDY    77  57  50 SW10      30.02R
DRYDEN           N/A     79  65  62 E16       29.96F
FORT STOCKTON  CLEAR     76  59  55 SE13G22   29.99S
GUAD PASS      CLEAR     70  53  54 E10         N/A
HOBBS          CLEAR     73  57  56 SE9       30.06S
MARFA          CLEAR    N/A N/A N/A NW5       30.14R
MIDLAND AIRPK  CLEAR     77  61  56 SE12      30.02F
MIDLAND INTL   CLOUDY    76  60  57 SE13      30.01F
ODESSA         CLEAR     76  60  57 SE12      30.02F
PECOS          CLEAR     77  61  57 E9        29.97S
PRESIDIO       FAIR      82  54  36 N5        29.97R
SEMINOLE       CLEAR     74  59  58 S9        30.05F
SNYDER           N/A     71  62  71 S8        30.02F
WINK           CLEAR     76  60  57 SE12      29.97F
$$
...OTHER STATIONS IN TEXAS...

CITY           SKY/WX    TMP DP  RH WIND       PRES   REMARKS
ABILENE        CLOUDY    76  69  79 S9        30.01F
AMARILLO       PTCLDY    75  58  55 S21       30.03S
AUSTIN         CLOUDY    76  73  91 CALM      30.02S
BROWNSVILLE    CLOUDY    82  76  81 SE13      29.96F
CORPUS CHRISTI MOCLDY    82  77  84 S7        29.97F
DALLAS FTW     PTCLDY    82  70  66 S13       29.98S
DEL RIO        PTCLDY    82  71  69 SE13      29.94S
EL PASO        CLOUDY    79  55  43 NW6       30.05S
HOUSTON INT    PTCLDY    79  75  87 CALM      30.02S
LUBBOCK        PTCLDY    75  57  53 S17       30.03S
SAN ANGELO     PTCLDY    73  65  75 SE3       30.00S
SAN ANTONIO    CLOUDY    78  73  84 SE10      30.02F
WACO           CLEAR     79  72  79 S14       30.01R
WICHITA FALLS  NOT AVBL
$$
...OTHER LOCATIONS IN NEW MEXICO...

CITY           SKY/WX    TMP DP  RH WIND       PRES   REMARKS
ALAMAGORDO     CLOUDY    72  61  68 NE9       30.08F
ALBUQUERQUE    MOCLDY    74  47  38 SE12      30.10S
CANNON AFB     CLOUDY    73  55  52 SW10      30.08S
CLOVIS         CLOUDY    72  54  53 S8        30.08S
HOLLOMAN AFB   MOCLDY    72  61  69 NE7       30.05F
ROSWELL        CLOUDY    78  50  37 S9        30.03F
RUIDOSO          N/A     64  50  59 W17       30.28F
SANTA FE       CLOUDY    67  47  48 N6        30.16F
TRUTH OR CONSE LGT RAIN  75  56  51 S14       30.11S
TUCUMCARI      CLEAR     78  53  41 S17       30.00F
$$

USA.gov is the U.S. government's official web portal to all federal, state and local government web resources and services.